Dewpoint
54 54 53 53 54 54 54 54 55 57 56 55 54 55 55 56 58 54 50 54 55 57 55 47 42 43 44 41 41 40 35 32 33 34 33 34 32 34 35 32 30 33 31 31 32
54 54 54 53 53 53 53 54 53 55 55 56 55 55 55 57 54 51 55 56 55 52 43 42 40 40 39 38 38 38 34 35 35 35 34 33 32 32 29 28 26 27 29 31 31
54 54 54 53 53 53 53 54 53 52 52 55 55 54 55 56 47 50 55 55 54 49 43 43 41 39 37 37 36 36 34 36 35 35 33 32 31 32 29 23 26 25 29 31 28
55 54 54 53 54 54 54 53 53 53 54 55 55 54 55 53 40 52 55 52 51 46 44 41 40 38 35 34 36 32 35 35 36 35 32 31 32 29 30 27 29 31 31 26 31
55 54 53 54 54 54 54 54 54 55 55 55 55 55 50 42 43 49 52 45 39 42 40 38 34 36 33 34 34 33 33 33 33 32 31 32 31 29 29 31 31 26 17 30 35
54 54 53 53 54 53 54 54 54 54 55 56 55 55 44 38 44 41 43 37 36 36 34 34 34 34 33 33 32 32 32 31 30 29 29 29 28 29 23 26 22 18 15 34 35
55 54 53 53 53 53 53 54 53 53 54 55 55 45 40 39 43 39 38 36 35 36 34 35 35 33 32 31 33 31 27 27 28 23 17 25 13 23 25 23 19 16 16 34 36
55 54 52 52 52 53 52 52 53 53 54 54 52 41 35 44 43 37 36 34 35 35 34 36 35 34 32 32 27 28 25 14 19 16 18 14 12 14 17 17 15 13 9 29 34
55 54 52 51 52 52 51 52 52 52 53 52 41 37 35 41 37 35 35 33 33 34 33 34 34 32 30 23 16 16 14 14 12 16 18 15 14 16 17 15 15 12 8 19 33
55 54 52 51 51 51 50 51 50 42 38 40 35 31 37 32 33 35 35 33 31 31 29 31 29 27 28 20 8 9 13 12 12 13 17 16 16 15 15 13 12 11 9 26 28
55 54 52 51 51 48 42 38 37 34 32 30 29 29 30 31 33 31 29 32 31 28 23 27 21 15 18 26 19 16 15 13 14 16 16 14 13 12 12 10 8 8 16 28 25
54 54 52 50 51 46 41 34 35 36 26 32 29 28 30 30 28 29 31 27 26 19 22 17 17 21 21 25 25 15 12 10 12 14 12 12 10 10 10 9 10 8 25 24 20
54 53 51 50 49 41 40 39 42 41 26 27 26 27 28 28 27 25 28 25 19 19 19 14 15 19 18 15 13 11 11 11 11 12 11 9 5 8 10 10 21 20 22 19 16
53 52 50 49 42 40 37 41 41 41 22 21 24 25 28 29 26 25 25 21 17 17 17 16 16 16 17 13 12 11 13 14 13 10 6 8 3 8 9 10 18 16 16 16 15
53 50 48 45 39 35 38 41 41 35 12 22 23 27 26 23 25 25 23 20 15 16 13 12 14 14 14 14 14 13 16 13 13 10 10 9 8 8 9 3 9 13 15 14 12
53 49 45 41 40 39 41 42 37 25 9 22 24 23 22 24 24 24 24 23 23 19 20 17 19 17 15 15 14 14 10 9 11 11 2 7 8 5 6 4 6 9 11 8 7
53 48 43 42 39 41 41 36 24 16 22 22 22 24 23 22 22 22 22 20 15 12 13 15 15 15 15 13 13 12 8 4 4 1 2 8 9 7 6 6 5 5 6 6 7
53 47 45 41 41 40 37 27 11 17 20 26 25 24 22 22 19 20 17 16 18 16 15 13 10 10 13 12 11 12 10 7 -2 -1 1 8 6 6 10 6 5 8 8 7 11
49 43 42 42 41 39 32 17 19 21 25 25 24 20 21 21 19 20 18 17 19 18 14 11 12 16 16 15 12 12 11 12 6 6 5 7 9 9 12 5 6 10 11 12 14
44 42 41 43 41 35 28 27 24 26 27 26 24 21 19 19 20 20 20 21 18 20 21 17 10 15 16 16 16 12 13 8 5 -6 -1 3 5 4 8 8 7 12 14 15 16
44 40 40 42 39 32 25 24 26 27 27 26 25 21 21 21 21 20 19 21 18 22 22 20 15 13 16 14 13 14 13 15 10 8 3 3 6 9 8 8 11 14 14 15 16
43 35 40 41 31 28 26 29 30 27 28 28 25 25 22 22 21 21 21 22 21 22 17 19 14 10 15 18 18 16 11 11 7 -0 2 7 10 11 10 13 14 14 15 16 17
40 38 41 38 28 30 32 30 27 27 26 27 26 26 24 22 17 22 23 26 26 22 22 22 14 8 11 13 16 17 16 11 7 8 6 3 8 11 11 13 15 16 18 17 19
39 34 36 37 35 29 29 26 26 28 28 28 27 27 24 23 23 21 23 26 25 23 29 24 17 13 12 8 8 6 9 16 13 10 11 11 11 13 13 14 16 18 19 18 18
39 35 34 30 31 31 27 25 28 27 27 27 26 26 25 17 22 23 23 24 25 26 28 21 17 14 15 15 13 14 12 12 12 15 15 14 13 14 16 17 19 20 18 18 18
36 36 36 33 30 33 30 27 29 29 27 25 26 27 25 22 25 23 23 22 22 22 20 20 19 22 19 21 21 20 21 20 18 16 16 17 17 19 19 19 17 17 18 18 18
43 40 37 35 30 31 31 30 30 32 30 31 28 26 25 26 25 26 24 24 23 21 16 19 21 19 10 15 15 12 14 16 19 20 18 17 18 19 17 17 18 17 18 19 20
Lifted_Index
11 11 11 12 12 12 12 12 11 11 10 10 10 10 9 8 8 8 8 7 8 8 9 9 10 9 9 8 8 8 6 5 6 7 8 9 10 10 10 10 11 13 14 16 17
11 11 11 12 12 12 12 12 11 11 10 10 9 9 8 7 7 7 7 7 7 8 9 9 9 9 8 8 8 8 6 6 8 8 9 10 10 10 10 11 12 13 15 16 17
10 11 11 12 12 12 12 11 11 11 10 9 8 8 7 6 6 6 7 7 7 8 8 8 8 8 8 8 8 8 8 8 10 10 10 10 11 11 11 12 13 14 15 16 17
10 11 11 11 11 11 11 11 11 10 9 9 8 7 6 6 6 6 7 7 8 8 8 8 8 8 8 8 8 8 9 10 11 11 11 12 12 12 12 13 14 15 16 16 16
10 11 11 11 11 11 11 11 10 10 9 8 7 7 7 7 7 7 8 8 9 9 9 9 9 9 9 9 9 9 10 11 12 12 13 12 12 12 13 14 15 16 16 16 15
10 10 11 11 11 11 11 10 10 9 9 8 7 7 7 7 8 9 9 10 10 10 10 11 11 11 10 10 10 11 11 11 12 13 13 12 11 12 14 15 15 16 16 16 15
10 10 11 11 11 11 11 10 10 9 9 8 8 8 8 9 10 10 11 12 12 11 12 12 12 12 12 11 11 11 10 10 11 12 12 11 10 11 14 15 15 16 16 15 15
9 10 11 12 11 11 11 11 10 9 9 9 9 9 10 11 11 12 12 13 13 12 12 13 12 12 12 11 10 9 7 7 9 11 12 10 8 11 14 15 15 15 16 16 15
9 10 11 12 12 12 12 11 10 9 9 9 10 10 11 12 13 13 13 13 13 13 13 13 12 11 11 9 7 6 5 5 8 11 11 9 8 10 14 14 14 14 15 16 16
9 9 11 12 12 12 12 11 11 10 9 10 10 10 11 13 14 14 14 13 13 12 12 12 11 9 9 7 6 5 5 5 7 9 10 8 7 10 13 13 13 13 15 15 16
8 9 10 11 12 13 13 12 11 11 10 10 10 11 12 13 13 14 14 13 12 11 10 10 8 8 8 8 7 6 5 6 8 9 9 7 7 9 11 13 13 13 14 15 15
8 9 10 11 12 13 13 12 12 11 11 11 12 12 13 13 12 12 13 12 10 9 8 8 7 8 9 9 8 7 6 6 7 9 9 7 6 8 10 12 13 14 15 15 15
8 8 9 11 12 12 12 12 13 12 10 10 12 12 13 12 10 11 12 11 9 7 7 7 8 9 9 8 7 7 6 6 7 8 8 6 5 6 9 11 13 14 15 15 15
8 8 9 10 11 12 12 12 13 11 9 9 11 12 12 10 10 11 12 11 8 7 6 7 8 8 7 7 7 7 8 8 7 6 5 5 4 5 8 10 12 14 15 15 15
7 8 9 10 11 12 12 12 11 9 6 7 10 11 10 9 9 10 12 11 9 7 7 7 8 8 7 8 8 9 9 9 7 5 4 4 3 4 6 9 11 13 15 16 16
7 8 8 9 10 11 12 11 9 6 5 6 8 9 8 7 8 9 10 10 9 7 7 7 8 9 9 9 10 10 9 7 6 4 3 3 3 4 6 9 11 13 15 16 17
7 7 8 9 10 11 11 9 6 5 5 6 7 7 7 6 6 7 8 8 8 6 6 6 7 9 9 9 9 9 7 4 3 2 2 3 4 4 8 10 12 14 15 16 16
7 7 8 9 10 11 9 7 5 4 5 6 6 6 6 6 6 6 6 6 7 6 5 4 5 8 9 9 9 8 6 4 2 1 2 4 4 6 10 12 13 14 15 15 15
6 7 8 9 10 10 8 6 5 5 6 6 6 6 5 5 5 5 6 6 7 7 6 4 5 7 9 10 9 8 7 6 4 2 2 3 4 7 10 12 13 14 15 15 14
6 7 7 8 9 9 7 5 5 6 6 5 5 5 5 5 5 5 6 6 7 8 7 6 5 7 8 9 9 8 8 7 5 3 1 2 4 6 9 11 12 13 14 14 14
6 6 8 8 9 8 6 5 6 6 6 5 5 4 4 4 5 5 6 7 8 8 8 7 6 6 7 8 9 8 7 7 6 4 2 2 4 7 10 11 12 13 14 14 14
5 6 8 8 7 6 5 6 6 6 5 5 4 4 4 5 5 5 6 7 9 9 8 7 6 5 6 7 9 8 8 7 6 5 4 2 4 8 11 12 12 13 14 14 14
5 6 7 8 6 5 5 5 6 5 5 4 4 4 5 5 5 5 6 8 9 9 9 8 6 4 5 7 8 8 8 8 7 6 4 3 5 8 11 12 12 13 14 14 14
6 6 7 7 6 5 5 5 5 5 4 4 4 4 4 5 5 5 6 8 9 9 9 8 7 5 5 6 7 7 7 8 7 6 5 4 5 8 10 12 13 13 14 14 14
6 6 6 7 6 5 5 5 5 4 4 4 4 4 4 4 4 5 6 7 8 9 9 9 7 6 6 6 7 7 7 7 6 6 6 6 7 9 11 12 13 14 14 14 14
6 6 7 7 6 5 5 5 5 4 4 4 4 4 4 4 4 5 6 6 7 8 8 8 7 6 6 6 7 6 6 6 7 7 7 7 9 11 12 13 13 14 14 13 13
5 6 7 7 6 5 5 4 4 4 4 4 4 4 4 4 5 5 6 6 7 7 7 7 7 6 6 6 6 6 6 6 7 8 8 8 9 11 13 13 13 13 13 13 13